IRIDIUM 80 [-]

Last updated on Mon Aug 13 2018 00:20:24 GMT+0000 (Coordinated Universal Time)

1 25469U 98051C 18223.95200989 .22939717 -17519-5 20398-3 0 9991 2 25469 86.3453 203.0951 0057884 256.2593 103.3611 16.45147878 43532

Satellite not in orbit

IRIDIUM 80 [-]